User: anonymous   Login
Location: *
(37.5724°S, 58.0067°E)
Time: 12:41:27
(UTC+00:00)
Language:

Cosmos 1025 Rocket - Orbit

View from above orbital plane
View from above orbital plane
View from above satellite
View from above satellite

Ground track
Ground track

The orbit data is extracted from the following two-line orbital elements,

1 10974U 78067B   21163.16651645  .00000092  00000-0  74818-5 0  9990
2 10974  82.4831 230.1016 0016995 193.0651 167.0128 14.87400655323976
Epoch (UTC): 12 June 2021 03:59:47
Eccentricity: 0.0016995
inclination: 82.4831°
perigee height: 594 km
apogee height: 618 km
right ascension of ascending node: 230.1016°
argument of perigee: 193.0651°
revolutions per day: 14.87400655
mean anomaly at epoch: 167.0128°
orbit number at epoch: 32397

The dashed part of the orbit path shows where the satellite is in the earth's shadow,  

DLR